Погода в Черемухе

Россия / Астраханская область     46°30′11″N   48°22′08″E
темп.,
°C
ветер,
м/с
пор.,
м/с
влажн.,
%
обл.,
%
осадки,
мм/ч
давл.,
гПа
погр.,
м
24 сентября, пт
пт2401:00+15ссз4683100 0.5 1011309
04:00+15с5982100 0.5 1009370
07:00+16ссв61078100 0.0 1007424
10:00+19в125097 0.0 1007931
13:00+22ссз5438100 0.0 10061391
16:00+19зсз995168 0.0 10071104
19:00+13зсз7118130 0.0 1009451
22:00+13зсз61180100 0.0 1011548
25 сентября, сб
сб2501:00+12зсз5117295 0.0 1012454
04:00+10зсз410800 0.0 1012241
07:00+10зсз36810 0.0 1013117
10:00+16сз345498 0.0 1012723
13:00+19зсз3339100 0.0 10111327
16:00+20сз3336100 0.0 10121531
19:00+17сз2348100 0.0 101338
22:00+15юз2252100 0.0 101417
26 сентября, вс
вс2601:00+14зюз4976100 0.2 1014596
04:00+13зюз5979100 0.3 1014371
07:00+12зюз48846 0.1 1015233
10:00+17з68545 0.1 1015859
13:00+19з794515 0.0 10141809
16:00+18з7941100 0.0 10142189
19:00+16зюз7114788 0.0 1013726
22:00+14зюз71273100 0.4 1012932
27 сентября, пн
пн2701:00+14зюз71386100 1.7 1010944
04:00+14зюз8148059 2.5 1008682
07:00+13з814760 0.1 1009745
10:00+15зсз911616 0.1 10101198
13:00+18зсз912395 0.0 10111994
16:00+18зсз9123617 0.0 10122318
19:00+14зсз6114745 0.0 1014478
22:00+14зсз594576 0.0 1015638
28 сентября, вт
вт2801:00+11зсз48656 0.0 1015186
04:00+10зсз487467 0.0 1016187
07:00+12зсз4768100 0.0 1017298
10:00+15ссз346283 0.0 1019711
13:00+19с444395 0.1 10192028
16:00+18с554344 0.2 10201602
19:00+14ссв69545 0.0 1022352
22:00+11ссв375787 0.0 1024193